Sierra Vista, AZ

11:22 AM MST on April 28, 2017 (GMT -0700)
Sierra Vista Municipal-Libby Army Air Field

Weather History for KFHU - April, 2013

Change the Weather History Date:

Tuesday, April 30, 2013

  Actual Average Record
Temperature  
Mean Temperature 72 °F -  
Max Temperature 86 °F 78 °F 90 °F (1992)
Min Temperature 59 °F 55 °F 38 °F (1984)
Cooling Degree Days 8    
Growing Degree Days 22 (Base 50)    
Moisture  
Dew Point 14 °F    
Average Humidity 11    
Maximum Humidity 20    
Minimum Humidity 5    
Precipitation  
Precipitation 0.00 in - - ()
Sea Level Pressure  
Sea Level Pressure 29.76 in    
Wind  
Wind Speed 11 mph (West)    
Max Wind Speed 24 mph    
Max Gust Speed 31 mph    
Visibility 10 miles    
Events      
Averages and records for this station are not official NWS values.
T = Trace of Precipitation, MM = Missing Value Source: NWS Daily Summary

Daily Weather History Graph

Daily Weather History Graph

Search for Another Location

Airport or City:

Trip Planner

Search our weather history database for the weather conditions in past years. The results will help you decide how hot, cold, wet, or windy it might be!

Date:

Astronomy

Apr. 30, 2013 Rise Set
Actual Time 5:36 AM MST 7:00 PM MST
Civil Twilight 5:10 AM MST 7:26 PM MST
Nautical Twilight 4:40 AM MST 7:57 PM MST
Astronomical Twilight 4:08 AM MST 8:29 PM MST
Moon No Moon Rise 10:12 AM MST (4/30)
Length of Visible Light 14h 15m
Length of Day
13h 24m
Waning Gibbous, 69% of the Moon is Illuminated
Apr 30
Waning Gibbous
May 2
Last Quarter
May 9
New
May 17
First Quarter
May 24
Full

Hourly Weather History & Observations

Time (MST) Temp. Dew Point Humidity Pressure Visibility Wind Dir Wind Speed Gust Speed Precip Events Conditions
12:55 AM 71.6 °F 17.6 °F 13% 29.73 in 10.0 mi WSW 12.7 mph - N/A   Clear
1:55 AM 69.8 °F 15.8 °F 13% 29.71 in 10.0 mi West 17.3 mph - N/A   Clear
2:55 AM 69.8 °F 12.2 °F 11% 29.72 in 10.0 mi Variable 3.5 mph - N/A   Clear
3:55 AM 59.0 °F 17.6 °F 20% 29.76 in 10.0 mi NW 6.9 mph - N/A   Clear
4:55 AM 59.0 °F 15.8 °F 19% 29.76 in 10.0 mi WNW 10.4 mph - N/A   Clear
5:55 AM 59.0 °F 14.0 °F 17% 29.78 in 10.0 mi West 4.6 mph - N/A   Clear
6:55 AM 64.4 °F 15.8 °F 15% 29.79 in 10.0 mi Calm Calm - N/A   Clear
7:55 AM 69.8 °F 15.8 °F 13% 29.81 in 10.0 mi Calm Calm - N/A   Clear
8:55 AM 77.0 °F 10.4 °F 8% 29.80 in 10.0 mi NW 5.8 mph - N/A   Partly Cloudy
9:55 AM 78.8 °F 8.6 °F 7% 29.79 in 10.0 mi NW 6.9 mph - N/A   Partly Cloudy
10:55 AM 82.4 °F 10.4 °F 7% 29.78 in 10.0 mi WNW 11.5 mph 19.6 mph N/A   Partly Cloudy
11:55 AM 84.2 °F 10.4 °F 6% 29.77 in 10.0 mi WNW 10.4 mph 21.9 mph N/A   Partly Cloudy
12:55 PM 84.2 °F 8.6 °F 6% 29.75 in 10.0 mi WSW 21.9 mph 26.5 mph N/A   Partly Cloudy
1:55 PM 86.0 °F 8.6 °F 5% 29.75 in 10.0 mi WSW 11.5 mph 24.2 mph N/A   Partly Cloudy
2:55 PM 86.0 °F 10.4 °F 6% 29.73 in 10.0 mi WNW 15.0 mph 20.7 mph N/A   Partly Cloudy
3:55 PM 84.2 °F 10.4 °F 6% 29.73 in 10.0 mi WSW 24.2 mph 31.1 mph N/A   Partly Cloudy
4:55 PM 82.4 °F 12.2 °F 7% 29.74 in 10.0 mi WSW 19.6 mph 27.6 mph N/A   Partly Cloudy
5:55 PM 80.6 °F 10.4 °F 7% 29.74 in 10.0 mi WSW 23.0 mph 26.5 mph N/A   Clear
6:55 PM 78.8 °F 12.2 °F 8% 29.75 in 10.0 mi SW 11.5 mph - N/A   Clear
7:55 PM 75.2 °F 14.0 °F 10% 29.75 in 10.0 mi SW 15.0 mph - N/A   Clear
8:55 PM 73.4 °F 17.6 °F 12% 29.76 in 10.0 mi SW 16.1 mph - N/A   Clear
9:55 PM 71.6 °F 19.4 °F 14% 29.77 in 10.0 mi SW 17.3 mph 28.8 mph N/A   Clear
10:55 PM 69.8 °F 23.0 °F 17% 29.76 in 10.0 mi West 11.5 mph - N/A   Clear
11:55 PM 71.6 °F 19.4 °F 14% 29.76 in 10.0 mi NNW 8.1 mph - N/A   Clear